Location: Czu?�w
(50.1404°N, 18.9919°E)
Time: 03:40:46
(UTC+00:00)

Cosmos 2263 Rocket - Pass Details

Date: 27 October 2020
Orbit: 822 x 850 km, 71.0° (Epoch: 27 November)

Event Time Altitude Azimuth Distance (km) Brightness Sun altitude
Rises 19:11:15 0° 327° (NNW) 3,422 6.1 -35.6°
Reaches altitude 10° 19:13:46 10° 323° (NW) 2,484 5.3 -36.0°
Enters shadow 19:17:18 36° 301° (WNW) 1,333 3.6 -36.5°
